[Date Prev][Date Next][Thread Prev][Thread Next][Date Index][Thread Index]

[jamsat-news:1752] jas2info #294



========================   最新情報   ==============================

        Last updated  19Oct2002  18:00(JST)   #294

====================================================================
   
1)アマチュア通信衛星情報、FOシリーズの軌道要素、テレメトリ、QSOの
   状況等をまとめてみました.
   
 FO−29の2002年10月19日(土)の16:38(JST)のパスでは
JARLのホームページのとうりアナログ運用でした。 今日までの観測した
テレメトリーと最終行の分析結果を報告しておきます。

AS30478C  19Oct2002
16:38-16:53(JST)
AOS   MEL  LOS  Elev
 19   100  180  48.5
Freq. 435.805-.785Hz
(JAS-2 No.109 B 3610-3880END No.110 A 0-520 )

HI HI AE 07 88 55 00 D4 7A 71 09 41 54 7F 50 5F 86 83 8F 6F 88 86 84 85 7D 
HI HI AE 07 88 55 00 D4 7A 71 09 41 4F 7C 53 5E 86 83 90 8A 88 86 84 85 7D 
HI HI AE 07 88 55 00 D4 7A 71 09 41 4B 78 56 5D 86 84 90 66 88 86 84 85 7D 
HI HI AE 07 88 55 00 D4 7A 71 09 41 48 73 58 5A 86 84 90 6D 88 86 84 85 7D 
HI HI AE 07 88 55 00 D4 7A 71 09 41 46 6D 5E 58 87 84 90 6B 88 86 84 85 7D 
HI HI AE 07 88 55 00 D4 7A 71 09 41 44 66 62 56 87 84 91 72 88 86 84 85 7D 
HI HI AE 07 88 55 00 D4 7A 71 09 41 44 5F 67 54 88 85 91 72 88 86 84 86 7D 
HI HI AE 07 88 55 00 D4 7A 71 09 41 45 58 6A 53 89 86 92 75 88 86 84 86 7D 
HI HI AE 07 88 55 00 D4 7A 71 09 41 47 50 6F 50 89 86 93 74 88 86 84 86 7D 
HI HI AE 07 88 55 00 D4 7A 71 09 41 4B 49 71 50 8B 87 94 78 88 86 84 86 7D 
HI HI AE 07 88 55 00 D4 7A 71 09 41 50 46 73 4D 8C 89 96 7E 88 85 84 86 7D 
HI HI AE 07 88 55 00 D4 7A 71 09 41 56 3D 75 4D 8E 8A 97 71 88 85 85 86 7D 
HI HI AE 07 88 55 00 D4 7A 71 09 41 5C 39 76 4C 90 8A 9I 5F 88 85 85 86 7D 
HI HI AE 07 88 55 00 D4 7A 71 09 41 63 36 78 4B 92 8E 9C 75 88 85 85 86 7D 
HI HI AE C7 88 55 00 D4 7A 71 09 41 6B 34 78 4B 92 8E 9C 73 88 85 85 86 7D 
HI HI AE C7 88 55 00 D4 7A 71 08 41 72 34 77 4C 93 8E 9B 71 87 85 85 86 7D
HI HI AE 07 88 55 00 D4 7A 71 09 41 7A 36 77 4B 93 8E 9B 62 87 85 85 86 7D 
HI HI AE 07 88 55 00 D4 7A 71 09 41 82 39 79 4C 92 7D B0 7A 87 85 85 86 7D 
HI HI AE 07 88 55 00 D4 7A 71 09 41 87 3B 79 5E 90 8C 9A 7D 87 85 85 87 7D  

AS30465C  18Oct2002
17:34-17:48(JST)
AOS   MEL  LOS  Elev
  6   287  209  49.0
Freq. 435.805-.785Hz
(JAS-2 No.109 B 3060-3610 )

HI HI AE 07 88 55 00 D4 94 7F 09 35 28 72 74 4C 91 8D 9A 7E 81 81 88 86 7C 
HI HI AE 07 88 55 00 D4 94 7F 09 35 24 63 74 4D 92 8E 9B 78 81 81 88 86 7C 
HI HI AE 07 88 55 00 D4 94 7F 09 35 24 52 73 5E 90 8C B0 6A 81 81 68 86 7C 
HI HI AE 07 88 55 00 D4 94 7F 09 35 2A 3F 71 4E 90 8C 9A 8D 81 81 88 86 7C 
HI HI AE 07 88 55 00 D4 94 7F 09 35 35 33 6F 50 90 8D 9A 7F 81 81 88 86 7C 
HI HI AE 07 88 55 00 D4 94 7F 09 35 44 27 6B 51 90 8E 9B 86 82 81 88 86 7C 
HI HI AE 07 88 55 00 D4 89 22 09 22 54 20 6A 53 93 8D 9B 7E 82 81 88 86 7C 
HI HI AE 07 88 55 00 D4 89 22 09 22 65 1F 6B 51 92 8E 9B 70 82 81 88 87 7C 
HI HI AE C7 88 55 00 D4 89 22 09 22 74 23 6F 4F 91 8D 9B 79 82 81 88 87 7C 
HI HI AE C7 88 55 00 D4 89 22 09 22 80 2D 72 4D 92 8E 9B 80 83 81 88 86 7C 
HI HI AE 07 88 55 00 D4 89 22 09 22 87 38 74 5E 90 8E 9B 5B 83 81 88 86 7C 
HI HI AE 07 88 55 00 D4 89 22 09 22 8A 55 75 5E 90 8E 9B 5B 83 81 88 86 7C 
HI HI AE 07 88 55 00 D4 89 22 09 22 87 5B 76 5E 90 8C 9B 61 83 81 88 87 7C 
HI HI AE C7 88 55 00 D4 89 22 09 22 80 6F 79 4B 92 8E B0 85 83 81 88 88 7C
HI HI AE 07 88 55 00 D4 89 22 09 22 66 89 79 5E 90 8C 89 7A 83 81 88 88 7C 
HI HI AE 07 88 55 00 D4 89 22 08 22 68 93 7A 60 96 8C B0 58 83 81 88 88 7C 
HI HI AE 07 88 55 00 D4 89 22 09 24 6A 96 7C 4A 93 8E B1 7E 83 81 88 88 7C 

AS30452C  17Oct2002
18:32-18:41(JST)
AOS   MEL  LOS  Elev
352   297  240  15.7
Freq. 435.800-.787Hz
(JAS-2 No.109  B 2680-3060 )

HI HI AE 07 88 55 00 D4 55 A5 09 1E 68 98 51 5E 87 84 91 50 8  E3 8A 88 7D 
HI HI AE 07 88 55 00 D4 55 A5 09 1E 69 95 58 5C 87 85 91 7E 83 83 8A 88 7D 
HI HI AE 07 88 55 00 D4 55 A5 09 1E 69 A5 5B 5A 87 85 91 67 83 83 8A 88 7D 
HI HI AE 07 88 55 00 D4 55 A5 09 1E 6A B1 60 56 88 85 90 63 83 83 8A 88 7D 
HI HI AE 07 88 55 00 D4 55 A5 09 1E 6A BA 63 55 88 85 92 63 83 83 8A 88 7D 
HI HI AE 07 88 55 00 D4 55 A5 09 1E 6C BB 70 50 89 86 93 5A 83 83 8A 88 7D 
HI HI AE 07 88 55 00 D4 55 A5 09 1E 6D BB 71 4F 8A 87 94 5D 84 83 8A 88 7D 
HI HI AE 07 88 55 00 D4 55 A5 09 1E 70 B5 77 4B 8C 89 96 61 84 83 8B 88 7D 
HI HI AE 07 88 55 00 D4 55 A5 09 1E 74 AB 7B 49 8F 8B 99 6E 84 83 8B 88 7D
HI HI AE 07 88 55 00 D4 55 A5 09 1E 78 9F 7D 48 90 8D AE 80 84 83 8B 88 7D 
HI HI AE C7 88 55 00 D4 55 A5 09 1E 7C 90 7D 5D 91 8D AB 7F 84 84 8B 88 7D 
HI HI AE C7 88 55 00 D4 55 A5 09 1E 83 85 80 4A 93 8D AC 67 84 84 8B 88 7D 
HI HI AE 07 88 55 00 D4 55 A5 09       
------------------------ FO-29の軌道要素 ------------------------------        
 
  ■ 軌道要素1:「jamsat−keps:1247」より         
          SB KEPS @ AMSAT  $ORB02283.N
          2Line Orbital Elements 02283.AMSAT

HR AMSAT ORBITAL ELEMENTS FOR AMATEUR SATELLITES IN NASA FORMAT
FROM WA5QGD FORT WORTH,TX October 10, 2002
SEND SUBSCRIBE/UNSUBSCRIBE TO majordomo@amsat.org ONLY
BID: ORB02283.N

 DECODE 2-LINE ELSETS WITH THE FOLLOWING KEY:
 1 AAAAAU 00  0  0 BBBBB.BBBBBBBB  .CCCCCCCC  00000-0  00000-0 0  DDDZ
 2 AAAAA EEE.EEEE FFF.FFFF GGGGGGG HHH.HHHH III.IIII JJ.JJJJJJJJKKKKKZ
 KEY: A-CATALOGNUM B-EPOCHTIME C-DECAY D-ELSETNUM E-INCLINATION F-RAAN
 G-ECCENTRICITY H-ARGPERIGEE I-MNANOM J-MNMOTION K-ORBITNUM Z-CHECKSUM

FO-29
1 24278U 96046B   02282.89916523  .00000183  00000-0  22299-3 0 05440
2 24278 098.5237 087.0982 0350623 197.7440 161.1225 13.52855298303501

 ■ 軌道要素2:「jamsat−keps:1248」より 
       SB KEPS @ AMSAT  $ORB02283.O
       Orbital Elements  02283.OSCAR

HR AMSAT ORBITAL ELEMENTS FOR OSCAR SATELLITES
FROM WA5QGD FORT WORTH,TX October 10, 2002
SEND SUBSCRIBE/UNSUBSCRIBE TO majordomo@amsat.org ONLY
BID: ORB02283.O
TO ALL RADIO AMATEURS BT

Satellite: FO-29
Catalog number: 24278
Epoch time:      02282.89916523
Element set:    0544
Inclination:      098.5237 deg
RA of node:       087.0982 deg
Eccentricity:    0.0350623
Arg of perigee:   197.7440 deg
Mean anomaly:     161.1225 deg
Mean motion:   13.52855298 rev/day
Decay rate:       1.83e-06 rev/day^2
Epoch rev:           30350
Checksum:              322

-------------------  FO-29(JAS-2)のテレメトリに関する情報  ---------------------- 
 
2)上記2002年10月19日(土)のテレメトリの16:38のパスの最終行を分析して
 おきます。

AS30478C  19Oct2002
16:38-16:53(JST)
AOS   MEL  LOS  Elev
 19   100  180  48.5
Freq. 435.805-.785Hz
(JAS-2 No.109 B 3610-3880END No.110 A 0-520 )

HI HI AE 07 88 55 00 D4 7A 71 09 41 87 3B 79 5E 90 8C 9A 7D 87 85 85 87 7D  

テレメトリ   内 容        換算算値 単 位
3C	磁気センサーZ軸=	66176.5	[nT]
3D	磁気センサX軸	=	28921.6	[nT]
4A	太陽電池発生電流=	 1186.3	[mA]
4B	B充放電電流	=	 -157.6	[mA]
4C	B端子電圧	=	   15.5	[V]
4D	B中間端子電圧	=	    6.7	[V]
5A	バス電圧	=	   15.1	[V]
5B	JTA送信電力	=	  714.4	[mW]
5C 	構体温度1	=	   29.5	[℃]
5D	構体温度2	=	   30.2	[℃]
6A	構体温度3	=	   30.2	[℃]
6B	構体温度4	=	   29.5	[℃]
6C	Bセル温度	=	   33.3	[℃]

 ========================== FO-29(ふじ3号)のテレメトリ分析、QSO情報等 =====================
   
 3)[jamsat-bb:

 =================================================================================================
 
 4)JARL のホームページに運用予定が記載されていましたのでご紹介します.
       ( http://www.jarl.or.jp/Japanese/3_Fuji/new/uy.htm )
       
        *** 運用予定について ***

   4月01日(月) 〜 6月30日(日)アナログ系運用 

  *なお,運用予定は都合により,変更することがありますので,あらかじめご了承願います。

 照会先 : lab@jarl.or.jp

 最新の情報はテレホンサービス(03−3942−1000)をお聞きください。  
 以後の運用につきましては平成14年7月上旬にお知らせいたします。        
     
-----------------------    FO−20(JAS-1b)道要素   -------------------------
  
  ■ 軌道要素1 :出典はFO-29「ふじ3号」に同じ.
  
FO-20
1 20480U 90013C   02282.94691512 -.00000020  00000-0  35444-4 0 04406
2 20480 099.0238 265.5543 0539822 302.0874 052.8889 12.83323387593636
 
  ■ 軌道要素2 :出典はFO−29「ふじ3号」に同じ.
               
Satellite: FO-20
Catalog number: 20480
Epoch time:      02282.94691512
Element set:    0440
Inclination:      099.0238 deg
RA of node:       265.5543 deg
Eccentricity:    0.0539822
Arg of perigee:   302.0874 deg
Mean anomaly:     052.8889 deg
Mean motion:   12.83323387 rev/day
Decay rate:       -2.0e-07 rev/day^2
Epoch rev:           59363
Checksum:              309

-------------------------------------------------------------------------------- 
         ■ ふじ2号/FO−20/JAS-1b ■      
            
          「ふじ2号」 現況                                                                                  
             
   JAS-1b(ふじ2号)のCWテレメトリ信号に,1997年10月12日12時(JST)の
 日本上空通過時,3桁の数字が繰り返されるはずが3個の長音の繰り返しとなっているという
 異常が発見されました。この不具合は次の通過時からは回復していましたが13日15時20分の
 通過時に再び観測されました。現在はA0の送信が続いています。衛星のアナログ系中継モード
 動作は異常が無く,正常時のテレメトリ内容からは衛星の動作に異常は認められません。従って,
 直ちに衛星のミッションに影響することは無いと予想されますので,当面はアナログ系中継
 モードを継続します。衛星は既に打ち上げてから7年8ヶ月を経ておりますので,今後は監視を
 強化する予定です。アマチュア各位のレポートをお待ちします。
 -------------------------------------------------------------------------------- 
  1997年10月14日 00時35分 確認のテレメトリ音 151 KB (A0) 
  1997年10月14日 11時10分 確認のテレメトリ音 216 KB (異常キーイング) 

  以上 JARLのホ−ムページの http://www.jarl.or.jp/Japanese/3_Fuji/new/fuji.htm

===================== FO-20 ふじ2号 のテレメトリ観測結果 ====================

  3月8日(金)18:18(JST)の観測結果ではテレメトリは、以前観測した単一周波数の
正弦波がドップラー効果で周波数がずれていくのみの状態でした。
                                         
   =============   JAS-2 (ふじ3号)と現在までの情報   ===========
  
  A.電話によるふじ3号の運用情報
      社団法人日本アマチュア連盟によるサービス
           TEL .   03− 3942 − 1000
  B.アマチュア無線FAXサービス
      JARLによるふじ3号の軌道情報(オービットカレンダー)
         FAX No.  03− 3233 −0055
  C.WWWブラウザで情報を簡単に見れる人のためにJAS-1,JAS‐1b,
   JAS‐2(ふじ1号からふじ3号の衛星としての運用されるまでの名前)の
   概要、打ち上げまでの状況、運用中における状況を説明したホームページを
   紹介しておきます.

     社団法人日本アマチュア無線連盟(JARL)のホームページ

         http://www.jarl.or.jp/Japanese/3_Fuji/new/fuji.htm
     http://www.jarl.or.jp/Japanese/3_Fuji/history/history.htm
 
     宇宙開発事業団(NASDA)ホームページ 

      1)「ふじ1号」(JAS−1:FO−12)
         http://spaceboy.nasda.go.jp/lib/satellites/jas/j/jas_01_j.html
         http://spaceboy.nasda.go.jp/lib/satellites/jas/g/h_15_017.jpg
         http://spaceboy.nasda.go.jp/lib/satellites/jas/e/jas_01_e.html
         http://space.nasda.go.jp/db/kaihatu/eisei/eisei_j/jas_1_a_j.html#2
         http://spaceboy.nasda.go.jp/note/eisei/j/eis15h_j.html#eis15h_01_j
         http://www.nasda.go.jp/lib/nasda-news/1996/12/resai_j.html
         http://spaceboy.nasda.go.jp/lib/satellites/jas/g/h_15_007.jpg
         http://www.nasda.go.jp/press/2002/02/pb_020220_j.html

      2)「ふじ2号」(JAS−1b:FO−20)
         http://spaceboy.nasda.go.jp/lib/satellites/mos/g/h_21_018.jpg
         http://spaceboy.nasda.go.jp/lib/satellites/mos/g/h_21_019.jpg
         http://spaceboy.nasda.go.jp/note/eisei/j/eis15h_j.html#eis15h_01_j

      3)「ふじ3号」(JAS−2:FO−29)
         http://www.nasda.go.jp/lib/nasda-news/1996/09/h2_j.html
         http://www.nasda.go.jp/pr/services/presskit/h2-f4/p-h2_3_e.html
         http://space.nasda.go.jp/db/kaihatu/eisei/eisei_j/jas-2_j.html
         http://spaceboy.nasda.go.jp/note/eisei/j/eis15i_j.html#eis15i_03_j

  D.JAMSATによる軌道情報の活用
        JAMSATのホームページまたはjamsat−kepsの軌道要素より
      衛星の軌道情報を得る.
     JAMSATホームページ
               URL    http://www.jamsat.or.jp
       上記ホームページでは各地で行われるアマチュア通信衛星に関する
      ミューティングのお知らせや世界のアマチュア衛星に関する情報が
      満載されています.

 ========================================================================  
     JAMSATのメンバーのご協力によりJH6MME(高山 秀造)が
    執筆・編集を担当しております.ご指摘の意見、疑問やこのようにしたら
    というアイデアがありましたら小さなことでもかまいませんので気軽に下
    記アドレスまでご連絡ください.jamsat−newsからjas2
    infoへの転載をJH4PHW局坂井さんに担当して頂いております.  
                  E-mail : jh6mme@jamsat.or.jp : jh4phw@jamsat.or.jp
 ===============================   END  ===============================